Regional Weather Roundup
Issued by NWS

Home | Current Version | Previous Version | Graphics & Text | Print | Product List | Glossary On
Versions: 1 2 3 4 5 6 7 8 9 10 11 12 13 14 15 16 17 18 19 20 21 22 23 24 25 26 27 28 29 30 31 32 33 34 35 36 37 38 39 40 41 42 43 44 45 46 47 48 49 50
000
ASUS43 KTOP 161608
RWRKS

WEATHER ROUNDUP FOR KANSAS
NATIONAL WEATHER SERVICE GOODLAND KS
1100 AM CDT WED AUG 16 2017

NOTE:  "FAIR" INDICATES FEW OR NO CLOUDS BELOW 12,000 FEET WITH NO
SIGNIFICANT WEATHER AND/OR OBSTRUCTIONS TO VISIBILITY.

KSZ001>006-013>018-027>032-041>047-161700-
NORTHWEST KANSAS

CITY           SKY/WX    TMP DP  RH WIND       PRES   REMARKS
GOODLAND       CLOUDY    68  61  78 NW12      30.00S
HAYS           CLOUDY    68  63  84 NW9       29.93R
HILL CITY      MOSUNNY   71  63  75 NW16      29.95R
RUSSELL        CLOUDY    68  63  84 NW12      29.89R
$$

KSZ061>065-074>080-084>089-161700-
SOUTHWEST KANSAS

CITY           SKY/WX    TMP DP  RH WIND       PRES   REMARKS
DODGE CITY     SUNNY     78  63  59 NW5       29.91R
ELKHART          N/A     70  62  76 NW8         N/A
GARDEN CITY    MOSUNNY   71  60  68 NW16      29.97R
GREAT BEND     MOSUNNY   73  65  75 CALM      29.90R
LIBERAL        MOSUNNY   73  62  68 N16       29.97R
PRATT          SUNNY     79  67  67 SE12      29.86R
$$

KSZ066>073-081>083-090>101-161700-
SOUTHEAST KANSAS

CITY           SKY/WX    TMP DP  RH WIND       PRES   REMARKS
CHANUTE        LGT RAIN  70  68  93 N7        29.92R FOG
COFFEYVILLE    LGT RAIN  81  74  79 SW12      29.86F
HUTCHINSON     SUNNY     75  68  78 SE15G21   29.83F
MEDICINE LODGE   N/A     81  70  69 SE7       29.83F
NEWTON         SUNNY     73  69  87 SE15      29.86F
PARSONS        CLOUDY    81  73  76 NW10G17   29.90R
WICHITA INTL   CLOUDY    73  68  84 E10       29.87S
WICHITA JABRA  PTSUNNY   72  71  97 SE9       29.86F
WINFIELD       PTSUNNY   82  74  76 SE7       29.88S
$$

KSZ007>012-019>026-033>040-048>060-102>105-161700-
NORTHEAST KANSAS

CITY           SKY/WX    TMP DP  RH WIND       PRES   REMARKS
CONCORDIA      PTSUNNY   71  66  84 W16       29.88R
EMPORIA        CLOUDY    70  67  90 SE14      29.83F
LAWRENCE       RAIN      72  70  93 W8        29.86R
MANHATTAN      CLOUDY    72  68  87 VRB5      29.83R
MARYSVILLE     CLOUDY    72  68  88 S5        29.81S
OLATHE IND     CLOUDY    78  73  84 SW10      29.88R
OLATHE EXE     PTSUNNY   77  74  90 SW8       29.88R
SALINA         SUNNY     76  65  68 VRB3      29.85R
TOPEKA BILLARD LGT RAIN  69  68  96 SE13      29.81F
TOPEKA FORBES  LGT RAIN  69  68  96 E13       29.79F
$$



USA.gov is the U.S. government's official web portal to all federal, state and local government web resources and services.